Regional Weather Roundup
Issued by NWS Northern Indiana

Home | Current Version | Previous Version | Graphics & Text | Print | Product List | Glossary On
Versions: 1 2 3 4 5 6 7 8 9 10 11 12 13 14 15 16 17 18 19 20 21 22 23 24 25 26 27 28 29 30 31 32 33 34 35 36 37 38 39 40 41 42 43 44 45 46 47 48 49 50
000
ASUS43 KIWX 271800
RWRIWX

KIWX WEATHER ROUNDUP
NATIONAL WEATHER SERVICE NORTHERN INDIANA
200 PM EDT THU APR 27 2017

NOTE: "FAIR" INDICATES FEW OR NO CLOUDS BELOW 12,000 FEET WITH NO
SIGNIFICANT WEATHER AND/OR OBSTRUCTIONS TO VISIBILITY.

* THESE STATIONS ARE NOT UNDER NWS QUALITY CONTROL. THEY ALSO MAY NOT
  REPORT WEATHER SUCH AS PRECIPITATION OR FOG.

INZ001>027-271900-
NORTHERN INDIANA

CITY           SKY/WX    TMP DP  RH WIND       PRES   REMARKS
GARY*          CLOUDY    48  37  66 SW17G35   29.63R
SOUTH BEND     CLOUDY    49  42  77 SW20G28   29.62R
6HR MIN TEMP:  49; 6HR MAX TEMP:  61; 6HR PCP: TRACE;

GOSHEN         CLOUDY    53  41  63 SW20G28   29.61R
6HR MIN TEMP:  53; 6HR MAX TEMP:  65;

MONTICELLO*    CLOUDY    48  41  74 W18G26    29.68R
6HR MIN TEMP:  47; 6HR MAX TEMP:  60; 6HR PCP:  0.10;

ANGOLA*        CLOUDY    55  46  71 W20       29.59R
FORT WAYNE     PTSUNNY   57  45  64 SW21G29   29.63R
6HR MIN TEMP:  56; 6HR MAX TEMP:  66; 6HR PCP:  0.03;

PERU/GRISSOM   CLOUDY    52  45  76 W21       29.65R

$$
INZ028>050-271900-
CENTRAL INDIANA

CITY           SKY/WX    TMP DP  RH WIND       PRES   REMARKS
LAFAYETTE      CLOUDY    48  43  82 W13G23    29.69R
6HR MIN TEMP:  47; 6HR MAX TEMP:  53;

KOKOMO*        CLOUDY    52  44  74 W23       29.68R
6HR MIN TEMP:  51; 6HR MAX TEMP:  63;

MUNCIE*        CLOUDY    58  46  64 W14G24    29.66R
6HR MIN TEMP:  56; 6HR MAX TEMP:  65; 6HR PCP:  0.04;

INDIANAPOLIS   CLOUDY    54  44  69 W16       29.71R
6HR MIN TEMP:  52; 6HR MAX TEMP:  62; 6HR PCP: TRACE;


$$
MIZ043>046-050>051-056>058-064>065-071>073-077>080-271900-
SOUTHWEST LOWER MICHIGAN

CITY           SKY/WX    TMP DP  RH WIND       PRES   REMARKS
BATTLE CREEK   CLOUDY    57  46  66 W15       29.56R
6HR MIN TEMP:  56; 6HR MAX TEMP:  68; 6HR PCP: TRACE;

BENTON HARBOR  CLOUDY    50  40  68 W21G30    29.60R
6HR MIN TEMP:  49; 6HR MAX TEMP:  63;

COLDWATER*     PTSUNNY   58  45  60 SW20G29   29.58R
6HR MIN TEMP:  57; 6HR MAX TEMP:  65;

HILLSDALE*     MOSUNNY   59  45  58 SW18G25   29.55R
HOLLAND        CLOUDY    49  42  77 SW18G28   29.58R
6HR MIN TEMP:  48; 6HR MAX TEMP:  64; 6HR PCP: TRACE;

GRAND RAPIDS   CLOUDY    50  44  80 SW23G31   29.55R
6HR MIN TEMP:  50; 6HR MAX TEMP:  66; 6HR PCP: TRACE;

KALAMAZOO      CLOUDY    54  43  66 W12       29.58R
6HR MIN TEMP:  54; 6HR MAX TEMP:  67;

STURGIS*       CLOUDY    54  44  68 W18G28    29.58R
6HR MIN TEMP:  54; 6HR MAX TEMP:  65;


$$
OHZ001>008-015>018-024>025-271900-
NORTHWEST OHIO

CITY           SKY/WX    TMP DP  RH WIND       PRES   REMARKS
DEFIANCE       MOSUNNY   62  49  62 W14G31    29.58R
6HR MIN TEMP:  60; 6HR MAX TEMP:  66; 6HR PCP:  0.09;

FINDLAY        CLOUDY    64  53  67 W18G36    29.57R
6HR MIN TEMP:  62; 6HR MAX TEMP:  72; 6HR PCP:  0.07;

TOLEDO EXPRESS PTSUNNY   67  56  67 SW26G36   29.55R
6HR MIN TEMP:  61; 6HR MAX TEMP:  70; 6HR PCP:  0.11;

TOLEDO METCALF PTSUNNY   67  57  70 SW21G37   29.55R
6HR MIN TEMP:  63; 6HR MAX TEMP:  72; 6HR PCP:  0.08;

LIMA           PTSUNNY   66  57  72 W28       29.60R
6HR MIN TEMP:  61; 6HR MAX TEMP:  69; 6HR PCP:  0.04;


$$
AND FOR LAKE MICHIGAN COASTAL AND OPEN LAKE BUOY OBSERVATIONS

STATION/POSITION TEMP    WIND        PRES    VSBY  WAVE
                 AIR SEA DIR/SP/G                  HT/PER
                 (F)     (DEG/KT/KT) (MB)    (MI)  (FT/S)
CALUMET HARBOR    46     240/  9/ 14 1002.3R
MICHIGAN CITY     46     240/ 29/ 31   N/A
BURNS HARBOR      47     260/ 23/ 26 1003.4R
SOUTH LAKE BUOY   44 41  260/ 16/ 19  999.9          4/ 4
4 MI NW BRIDGMAN  46 48  250/ 19/ 25 1003.2R         5/ 5
MICHIGAN CITY     46 48                N/A           5/ 5

$$
&&



USA.gov is the U.S. government's official web portal to all federal, state and local government web resources and services.